Printer-friendly version
Follow the MPC on Twitter Follow the MPC on Facebook The MPC blog
Minor Planet Center

MPEC 2007-E59 : 2007 EG26

The following Minor Planet Electronic Circular may be linked-to from your own Web pages, but must not otherwise be redistributed electronically.

A form allowing access to any MPEC is at the bottom of this page.


Read MPEC 2007-E58 Read MPEC 2007-E60


M.P.E.C. 2007-E59                                Issued 2007 Mar. 12, 21:02 UT

     The Minor Planet Electronic Circulars contain information on unusual
         minor planets and routine data on comets.  They are published
   on behalf of Commission 20 of the International Astronomical Union by the
          Minor Planet Center, Smithsonian Astrophysical Observatory,
                          Cambridge, MA 02138, U.S.A.

             Prepared using the Tamkin Foundation Computer Network

                              MPC@CFA.HARVARD.EDU
          URL http://cfa-www.harvard.edu/iau/mpc.html  ISSN 1523-6714

                                   2007 EG26

Observations:
     K07E26G* C2007 03 10.31262 12 45 11.52 +31 20 01.5          17.3 V EE059703
     K07E26G  C2007 03 10.32300 12 45 34.11 +31 33 56.0          18.3 V EE059703
     K07E26G  C2007 03 10.33340 12 45 56.54 +31 47 37.5          17.4 V EE059703
     K07E26G  C2007 03 10.33438 12 45 56.55 +31 48 47.8          18.4   EE059704
     K07E26G  C2007 03 10.34398 12 46 19.38 +32 01 34.3          17.5 V EE059703
     K07E26G  C2007 03 10.34560 12 46 20.87 +32 03 35.2          18.4   EE059704
     K07E26G  C2007 03 10.35684 12 46 45.23 +32 18 18.4          18.1   EE059704
     K07E26G  C2007 03 10.36813 12 47 09.65 +32 33 01.1          19.2   EE059704
     K07E26G  C2007 03 10.38395 12 47 45.99 +32 53 38.7          17.2 V EE059703
     K07E26G  C2007 03 10.38711 12 47 52.83 +32 57 41.5          17.4 V EE059703
     K07E26G  C2007 03 10.39031 12 47 59.85 +33 01 49.7          17.4 V EE059703
     K07E26G  C2007 03 10.39354 12 48 06.87 +33 05 57.7          17.5 V EE059703
     K07E26G  C2007 03 11.28832 13 24 59.07 +48 39 11.6          18.4 V EE059G96
     K07E26G  C2007 03 11.28856 13 24 59.68 +48 39 23.9          18.4 V EE059G96
     K07E26G  C2007 03 11.28883 13 25 00.30 +48 39 36.7          18.4 V EE059G96
     K07E26G  C2007 03 11.28907 13 25 00.87 +48 39 49.0          18.4 V EE059G96
     K07E26G  C2007 03 11.32997 13 26 37.50 +49 13 19.7          18.1 V EE059703
     K07E26G  C2007 03 11.33415 13 26 47.32 +49 16 42.6          18.4 V EE059703
     K07E26G  C2007 03 11.33838 13 26 57.26 +49 20 05.2          18.6 V EE059703
     K07E26G  C2007 03 11.34260 13 27 07.27 +49 23 28.9          18.4 V EE059703
     K07E26G  C2007 03 11.81117 13 47 14.48 +54 44 53.0          18.6 R EE059473
     K07E26G  C2007 03 11.81693 13 47 29.28 +54 48 28.0          18.3 R EE059473
     K07E26G  C2007 03 11.82200 13 47 42.20 +54 51 35.9          18.5 R EE059473
     K07E26G  C2007 03 11.91336 13 51 33.11 +55 46 32.4          18.3 R EE059143
     K07E26G  C2007 03 11.91601 13 51 39.54 +55 48 05.8          18.2 R EE059143
     K07E26G  C2007 03 11.91879 13 51 46.45 +55 49 43.4          18.1 R EE059143
     K07E26G  C2007 03 11.92156 13 51 53.36 +55 51 20.3          18.1 R EE059143
     K07E26G  C2007 03 11.92432 13 52 00.22 +55 52 57.1          18.0 R EE059143
     K07E26G  C2007 03 12.03428 13 56 26.46 +56 54 37.5          18.5 R EE059473
     K07E26G  C2007 03 12.03877 13 56 37.28 +56 57 01.8          18.6 R EE059473
     K07E26G  C2007 03 12.04214 13 56 45.40 +56 58 50.2          18.6 R EE059473
     K07E26G  C2007 03 12.05339 13 57 17.84 +57 04 09.9                 EE059J95
     K07E26G  C2007 03 12.05504 13 57 21.88 +57 05 02.6                 EE059J95
     K07E26G  C2007 03 12.05667 13 57 25.81 +57 05 54.4          18.4 R EE059J95
     K07E26G  C2007 03 12.07106 13 57 53.22 +57 13 52.4          18.1 R EE059118
     K07E26G  C2007 03 12.07479 13 58 02.16 +57 15 47.6          18.4 R EE059118
     K07E26G  C2007 03 12.07711 13 58 07.86 +57 16 59.2          18.5 R EE059118
     K07E26G  C2007 03 12.07789 13 58 09.63 +57 17 23.2          17.9 R EE059118
     K07E26G  C2007 03 12.07866 13 58 11.54 +57 17 48.3          18.5 R EE059118
     K07E26G  C2007 03 12.08099 13 58 17.17 +57 19 00.0          18.8 R EE059118
     K07E26G  C2007 03 12.08296 13 58 21.99 +57 20 02.4          18.6 R EE059118
     K07E26G  C2007 03 12.08374 13 58 23.83 +57 20 25.6          17.8 R EE059118
     K07E26G  C2007 03 12.08451 13 58 25.73 +57 20 50.5          18.6 R EE059118
     K07E26G  C2007 03 12.08761 13 58 33.20 +57 22 26.1          18.5 R EE059118
     K07E26G  C2007 03 12.08915 13 58 36.82 +57 23 13.0          18.8 R EE059118
     K07E26G  C2007 03 12.09649 13 58 55.01 +57 26 59.4          18.6 V EE059B03
     K07E26G  C2007 03 12.10360 13 59 12.13 +57 30 35.8          19.5 V EE059B03
     K07E26G  C2007 03 12.11090 13 59 29.89 +57 34 18.0          19.0 V EE059B03
     K07E26G  C2007 03 12.28984514 07 26.16 +59 01 14.5          20.2   EE059H55
     K07E26G  C2007 03 12.30040514 07 51.54 +59 06 10.5          20.2   EE059H55
     K07E26G  C2007 03 12.31047914 08 15.51 +59 10 48.3          20.0   EE059H55
     K07E26G 5C2007 03 12.33684 14 09 32.77 +59 22 26.1          19.2 R EE059673
     K07E26G 5C2007 03 12.36412 14 10 38.17 +59 34 52.8                 EE059673
     K07E26G 5C2007 03 12.37013 14 10 52.55 +59 37 33.3                 EE059673
     K07E26G 5C2007 03 12.37556 14 11 05.30 +59 39 56.5                 EE059673
     K07E26G  C2007 03 12.47021 14 14 45.14 +60 20 30.9          19.7 R EE059854
     K07E26G  C2007 03 12.47319 14 14 52.12 +60 21 44.7          19.7 R EE059854
     K07E26G  C2007 03 12.47615 14 14 59.18 +60 22 56.6          19.8 R EE059854

Observer details:
118 Modra.  Observer L. Kornos.  0.6-m f/5.5 reflector + CCD.
143 Gnosca.  Observer S. Sposetti.  0.40-m f/4 reflector + CCD.
473 Remanzacco.  Observers L. Donato, V. Gonano, E. Guido, G. Sostero.  0.45-m
    f/4.4 Newtonian reflector + CCD.
673 Table Mountain Observatory, Wrightwood.  Observer J. Young.  0.61-m f/16
    Cassegrain + CCD.
703 Catalina Sky Survey.  Observers E. C. Beshore, A. P. Odell.  Measurers
    E. C. Beshore, E. J. Christensen, G. J. Garradd, A. R. Gibbs, A. D. Grauer,
    R. E. Hill, R. A. Kowalski, S. M. Larson, R. H. McNaught.  0.68-m Schmidt
    + CCD.
704 Lincoln Laboratory ETS, New Mexico.  Observers M. Bezpalko, D. Torres,
    R. Kracke, G. Spitz, J. Kistler.  Measurers J. Stuart, S. Scruggs.  1.0-m
    f/2.15 reflector + CCD.
854 Sabino Canyon Observatory, Tucson.  Observer J. E. McGaha.  0.36-m f/10.0
    Schmidt-Cassegrain + CCD.
B03 Alter Satzberg, Vienna.  Observer M. Pietschnig.  0.35-m f/7
    Schmidt-Cassegrain + CCD.
G96 Mt. Lemmon Survey.  Observer R. A. Kowalski.  Measurers E. C. Beshore,
    E. J. Christensen, G. J. Garradd, A. R. Gibbs, A. D. Grauer, R. E. Hill,
    R. A. Kowalski, S. M. Larson, R. H. McNaught.  1.5-m reflector + CCD.
H55 Astronomical Research Observatory, Charleston.  Observer R. Holmes.
    0.81-m f/4.0 astrograph + CCD.
J95 Great Shefford.  Observer P. Birtwhistle.  0.40-m f/6.0 Schmidt-Cassegrain
    + CCD.

Orbital elements:
2007 EG26                                                Earth MOID = 0.0177 AU
Epoch 2007 Apr. 10.0 TT = JDT 2454200.5                 MPC
M   8.74457              (2000.0)            P               Q
n   0.76406343     Peri.   21.52367     -0.97672108     +0.19177742
a   1.1849948      Node   168.22902     -0.18530990     -0.98001669
e   0.1552607      Incl.   28.10785     +0.10805636     +0.05280814
P   1.29           H   24.6           G   0.15           U   7
Residuals in seconds of arc
070310 703  0.3-  0.4+    070311 473  0.7-  0.9+    070312 118  0.4+  0.5+
070310 703 (1.0+  5.1+)   070311 473  0.3-  0.5+    070312 118  0.1+  0.4-
070310 703  0.1-  0.6-    070311 473  0.7-  0.6-    070312 118  0.4+  0.7+
070310 704  0.4+  0.1-    070311 143  1.8+  0.3-    070312 118  0.4+  0.7+
070310 703  0.8-  1.0-    070311 143  0.5+  0.1-    070312 118  0.4-  0.2+
070310 704  0.8+  0.9+    070311 143  0.6+  0.1-    070312 B03  0.3+  0.1+
070310 704  1.0+  1.2+    070311 143  1.0+  0.2-    070312 B03  0.1+  0.4-
070310 704 (0.3+  2.0+)   070311 143  1.2+  0.0     070312 B03  1.2+  0.3+
070310 703  0.5-  0.3+    070312 473  0.5-  0.0     070312 H55  0.7-  0.8-
070310 703  0.8-  1.1-    070312 473  0.4-  0.0     070312 H55  0.2+  0.6+
070310 703  0.1+  0.2+    070312 473  0.3-  0.5+    070312 H55  0.5-  0.4-
070310 703  0.2+  0.5-    070312 J95  0.3-  0.2+    070312 673  0.2-  1.8-
070311 G96  0.2-  0.1+    070312 J95  0.1-  0.2+    070312 673  0.4+  1.6+
070311 G96  0.2+  0.4+    070312 J95  0.3-  0.1+    070312 673  0.9+  0.5+
070311 G96  0.0   0.2-    070312 118  0.3-  0.0     070312 673  0.4-  1.6-
070311 G96  0.0   0.1+    070312 118  0.7-  1.0-    070312 854  0.4+  0.2+
070311 703  0.0   0.1+    070312 118  0.2+  1.5-    070312 854  0.1+  1.2+
070311 703  0.2-  0.8+    070312 118  0.7-  1.7-    070312 854  0.7+  0.9+
070311 703  0.2-  0.6-    070312 118  0.3-  0.5-
070311 703  0.7+  0.2+    070312 118  0.2-  1.0-

Ephemeris:
2007 EG26                a,e,i = 1.18, 0.16, 28                  q = 1.0010
Date    TT    R. A. (2000) Decl.     Delta      r     Elong.  Phase     V
2007 03 11    13 12.61   +44 22.8    0.0227   1.009   133.0    46.1    18.1
2007 03 12    13 54.84   +56 35.0    0.0289   1.008   119.4    59.2    19.0
2007 03 13    14 36.99   +63 26.8    0.0362   1.007   110.9    67.2    19.8
2007 03 14    15 16.35   +67 20.0    0.0440   1.007   105.2    72.3    20.4
2007 03 15    15 51.17   +69 34.2    0.0522   1.006   101.3    75.8    20.8
2007 03 16    16 20.85   +70 52.6    0.0604   1.005    98.4    78.2    21.2
2007 03 17    16 45.66   +71 38.6    0.0688   1.005    96.2    79.9    21.6
2007 03 18    17 06.23   +72 05.7    0.0773   1.004    94.4    81.2    21.9
2007 03 19    17 23.29   +72 21.3    0.0857   1.004    93.0    82.1    22.1
2007 03 20    17 37.52   +72 29.8    0.0942   1.003    91.8    82.8    22.4
2007 03 21    17 49.47   +72 34.0    0.103    1.003    90.8    83.3    22.6

Kyle E. Smalley              (C) Copyright 2007 MPC           M.P.E.C. 2007-E59

Read MPEC 2007-E58 Read MPEC 2007-E60


MPEC number:

Enter an MPEC number in one of the following forms:

  • 1997-B01 (the full form)
  • J97B01 (the packed version of the full form)
  • B01 (the abbreviated form)

Valid HTML 4.01!